Dades meteomassalio
Diari Summary for Maig 15, 2017 Units:  Metric    English   Both
« Previous Day
Next Day »
Diari Semanal Mensual Anual Personalitzat
  Maxima: Minima: Mijana:
Temperatura: -17.8 °C -11.7 °C -6.1 °C
Rosada: -17.8 °C -13.1 °C -11.9 °C
Humitat: Humidity % 29 % 55 %
Velocitat del vent: 0 km/h 0 km/h 10 km/h
Racha vent: 0 km/h - -
Vent:- - ESE
Pressio: 0 hPa 34659.1 hPa -
Pluja: 0 mm    
Historical Graphs
 
 
Tabular Data for Maig 15, 2017
Time Temperature Dew Point Pressure Wind Wind Speed Wind Gust Humidity Rainfall Rate (Hourly) solar Conditions
-17.8 °C -17.8 °C 0 hPa Calm     Humidity % 0 mm SolarRadiationWatts/m^2 W/m2 Conditions
00:03 -7.2 °C -11.3 °C 34703.1 hPa Calm     62 % 0 mm 0.0 W/m2 CLR
00:08 -7.3 °C -11.4 °C 34703.1 hPa Calm     62 % 0 mm 0.0 W/m2 CLR
00:13 -7.3 °C -11.4 °C 34703.1 hPa Calm     62 % 0 mm 0.0 W/m2 CLR
00:18 -7.3 °C -11.4 °C 34703.1 hPa Calm     62 % 0 mm 0.0 W/m2 CLR
00:23 -7.5 °C -11.5 °C 34703.1 hPa Calm     63 % 0 mm 0.0 W/m2 CLR
00:28 -7.7 °C -11.4 °C 34703.1 hPa Calm     65 % 0 mm 0.0 W/m2 CLR
00:33 -7.9 °C -11.5 °C 34703.1 hPa Calm     66 % 0 mm 0.0 W/m2 CLR
00:38 -8 °C -11.6 °C 34703.1 hPa Calm     66 % 0 mm 0.0 W/m2 CLR
00:43 -8.2 °C -11.6 °C 34703.1 hPa Calm     67 % 0 mm 0.0 W/m2 CLR
00:48 -8.3 °C -11.6 °C 34703.1 hPa Calm     68 % 0 mm 0.0 W/m2 CLR
00:53 -8.4 °C -11.6 °C 34716.7 hPa Calm     69 % 0 mm 0.0 W/m2 CLR
00:58 -8.6 °C -11.6 °C 34716.7 hPa Calm     70 % 0 mm 0.0 W/m2 CLR
01:03 -8.7 °C -11.7 °C 34716.7 hPa Calm     70 % 0 mm 0.0 W/m2 CLR
01:08 -8.7 °C -11.7 °C 34716.7 hPa Calm     71 % 0 mm 0.0 W/m2 CLR
01:13 -8.8 °C -11.8 °C 34716.7 hPa Calm     71 % 0 mm 0.0 W/m2 CLR
01:18 -8.9 °C -11.7 °C 34716.7 hPa Calm     72 % 0 mm 0.0 W/m2 CLR
01:23 -9 °C -11.8 °C 34716.7 hPa Calm     72 % 0 mm 0.0 W/m2 CLR
01:28 -9.1 °C -11.8 °C 34716.7 hPa Calm     73 % 0 mm 0.0 W/m2 CLR
01:33 -9.2 °C -11.8 °C 34716.7 hPa Calm     73 % 0 mm 0.0 W/m2 CLR
01:38 -9.3 °C -11.8 °C 34716.7 hPa Calm     74 % 0 mm 0.0 W/m2 CLR
01:44 -9.3 °C -11.9 °C 34716.7 hPa Calm     74 % 0 mm 0.0 W/m2 CLR
01:49 -9.4 °C -11.8 °C 34716.7 hPa Calm     75 % 0 mm 0.0 W/m2 CLR
01:54 -9.4 °C -11.8 °C 34716.7 hPa Calm     75 % 0 mm 0.0 W/m2 CLR
01:59 -9.5 °C -11.9 °C 34716.7 hPa Calm     75 % 0 mm 0.0 W/m2 CLR
02:04 -9.6 °C -11.8 °C 34716.7 hPa Calm     76 % 0 mm 0.0 W/m2 CLR
02:09 -9.6 °C -11.9 °C 34716.7 hPa Calm     76 % 0 mm 0.0 W/m2 CLR
02:14 -9.7 °C -11.9 °C 34716.7 hPa Calm     77 % 0 mm 0.0 W/m2 CLR
02:19 -9.8 °C -12 °C 34716.7 hPa Calm     77 % 0 mm 0.0 W/m2 CLR
02:24 -9.8 °C -12.1 °C 34716.7 hPa Calm     77 % 0 mm 0.0 W/m2 CLR
02:29 -9.9 °C -12 °C 34716.7 hPa Calm     78 % 0 mm 0.0 W/m2 CLR
02:34 -10 °C -12.1 °C 34716.7 hPa Calm     78 % 0 mm 0.0 W/m2 CLR
02:39 -10.1 °C -12.1 °C 34716.7 hPa Calm     79 % 0 mm 0.0 W/m2 CLR
02:44 -10.1 °C -12.1 °C 34726.8 hPa Calm     79 % 0 mm 0.0 W/m2 CLR
02:49 -10.1 °C -12.1 °C 34726.8 hPa Calm     79 % 0 mm 0.0 W/m2 CLR
02:54 -10.1 °C -12.1 °C 34716.7 hPa Calm     79 % 0 mm 0.0 W/m2 CLR
02:59 -10.2 °C -12.1 °C 34726.8 hPa Calm     79 % 0 mm 0.0 W/m2 CLR
03:04 -10.1 °C -12.1 °C 34726.8 hPa Calm     79 % 0 mm 0.0 W/m2 CLR
03:09 -10.2 °C -12.2 °C 34726.8 hPa Calm     79 % 0 mm 0.0 W/m2 CLR
03:14 -10.2 °C -12.2 °C 34726.8 hPa Calm     79 % 0 mm 0.0 W/m2 CLR
03:19 -10.3 °C -12.3 °C 34726.8 hPa Calm     79 % 0 mm 0.0 W/m2 CLR
03:24 -10.3 °C -12.2 °C 34726.8 hPa Calm     80 % 0 mm 0.0 W/m2 CLR
03:29 -10.4 °C -12.3 °C 34726.8 hPa Calm     80 % 0 mm 0.0 W/m2 CLR
03:34 -10.4 °C -12.2 °C 34726.8 hPa Calm     81 % 0 mm 0.0 W/m2 CLR
03:39 -10.4 °C -12.2 °C 34726.8 hPa Calm     81 % 0 mm 0.0 W/m2 CLR
03:44 -10.4 °C -12.2 °C 34726.8 hPa Calm     81 % 0 mm 0.0 W/m2 CLR
03:49 -10.4 °C -12.2 °C 34726.8 hPa Calm     81 % 0 mm 0.0 W/m2 CLR
03:54 -10.4 °C -12.3 °C 34726.8 hPa Calm     80 % 0 mm 0.0 W/m2 CLR
03:59 -10.5 °C -12.4 °C 34726.8 hPa Calm     80 % 0 mm 0.0 W/m2 CLR
04:04 -10.6 °C -12.3 °C 34740.4 hPa Calm     81 % 0 mm 0.0 W/m2 CLR
04:09 -10.7 °C -12.4 °C 34740.4 hPa Calm     81 % 0 mm 0.0 W/m2 CLR
04:14 -10.7 °C -12.4 °C 34740.4 hPa Calm     82 % 0 mm 0.0 W/m2 CLR
04:19 -10.8 °C -12.4 °C 34740.4 hPa Calm     82 % 0 mm 0.0 W/m2 CLR
04:24 -10.8 °C -12.5 °C 34740.4 hPa Calm     82 % 0 mm 0.0 W/m2 CLR
04:29 -10.9 °C -12.4 °C 34740.4 hPa Calm     83 % 0 mm 0.0 W/m2 CLR
04:34 -10.9 °C -12.5 °C 34740.4 hPa Calm     83 % 0 mm 0.0 W/m2 CLR
04:39 -11 °C -12.6 °C 34740.4 hPa Calm     83 % 0 mm 0.0 W/m2 CLR
04:44 -11 °C -12.6 °C 34740.4 hPa Calm     83 % 0 mm 0.0 W/m2 CLR
04:49 -11.1 °C -12.6 °C 34750.5 hPa Calm     83 % 0 mm 0.0 W/m2 CLR
04:54 -11.1 °C -12.7 °C 34750.5 hPa Calm     83 % 0 mm 0.0 W/m2 CLR
04:59 -11.2 °C -12.7 °C 34750.5 hPa Calm     83 % 0 mm 0.0 W/m2 CLR
05:04 -11.2 °C -12.7 °C 34750.5 hPa Calm     84 % 0 mm 0.0 W/m2 CLR
05:09 -11.2 °C -12.7 °C 34750.5 hPa Calm     84 % 0 mm 0.0 W/m2 CLR
05:14 -11.3 °C -12.7 °C 34750.5 hPa Calm     84 % 0 mm 0.0 W/m2 CLR
05:15 -11.3 °C -12.7 °C 34750.5 hPa Calm     84 % 0 mm 0.0 W/m2 CLR
05:20 -11.3 °C -12.7 °C 34750.5 hPa Calm     84 % 0 mm 0.0 W/m2 CLR
05:25 -11.3 °C -12.8 °C 34750.5 hPa Calm     84 % 0 mm 0.0 W/m2 CLR
05:30 -11.4 °C -12.8 °C 34750.5 hPa Calm     85 % 0 mm 0.0 W/m2 CLR
05:35 -11.4 °C -12.8 °C 34750.5 hPa Calm     85 % 0 mm 0.0 W/m2 CLR
05:40 -11.5 °C -12.8 °C 34750.5 hPa Calm     85 % 0 mm 0.0 W/m2 CLR
05:45 -11.5 °C -12.8 °C 34750.5 hPa Calm     86 % 0 mm 0.0 W/m2 CLR
05:50 -11.6 °C -12.8 °C 34760.7 hPa Calm     86 % 0 mm 0.0 W/m2 CLR
05:55 -11.6 °C -12.8 °C 34750.5 hPa Calm     86 % 0 mm 0.0 W/m2 CLR
06:00 -11.6 °C -12.8 °C 34760.7 hPa Calm     86 % 0 mm 0.0 W/m2 CLR
06:05 -11.6 °C -12.8 °C 34760.7 hPa Calm     86 % 0 mm 0.0 W/m2 CLR
06:10 -11.6 °C -12.9 °C 34750.5 hPa Calm     85 % 0 mm 0.0 W/m2 CLR
06:15 -11.6 °C -12.9 °C 34760.7 hPa Calm     85 % 0 mm 0.0 W/m2 CLR
06:20 -11.7 °C -13 °C 34760.7 hPa Calm     85 % 0 mm 0.0 W/m2 CLR
06:25 -11.6 °C -12.9 °C 34760.7 hPa Calm     86 % 0 mm 0.0 W/m2 CLR
06:30 -11.6 °C -12.9 °C 34760.7 hPa Calm     86 % 0 mm 0.0 W/m2 CLR
06:35 -11.6 °C -12.9 °C 34760.7 hPa Calm     86 % 0 mm 5.0 W/m2 OVC
06:40 -11.6 °C -12.9 °C 34760.7 hPa Calm     86 % 0 mm 5.0 W/m2 OVC
06:45 -11.6 °C -12.9 °C 34760.7 hPa Calm     86 % 0 mm 7.0 W/m2 BKN
06:50 -11.6 °C -12.9 °C 34760.7 hPa Calm     86 % 0 mm 12.0 W/m2 BKN
06:55 -11.6 °C -12.9 °C 34774.2 hPa Calm     86 % 0 mm 16.0 W/m2 BKN
07:00 -11.6 °C -12.9 °C 34774.2 hPa Calm     86 % 0 mm 19.0 W/m2 BKN
07:05 -11.6 °C -12.9 °C 34774.2 hPa Calm     86 % 0 mm 21.0 W/m2 BKN
07:10 -11.6 °C -12.8 °C 34774.2 hPa Calm     86 % 0 mm 26.0 W/m2 BKN
07:15 -11.4 °C -12.7 °C 34774.2 hPa Calm     86 % 0 mm 33.0 W/m2 BKN
07:20 -11.4 °C -12.7 °C 34774.2 hPa Calm     85 % 0 mm 42.0 W/m2 BKN
07:25 -11.3 °C -12.7 °C 34774.2 hPa Calm     85 % 0 mm 49.0 W/m2 SCT
07:30 -11.3 °C -12.6 °C 34774.2 hPa Calm     85 % 0 mm 63.0 W/m2 SCT
07:35 -11.2 °C -12.6 °C 34784.4 hPa Calm     85 % 0 mm 72.0 W/m2 FEW
07:40 -11 °C -12.4 °C 34784.4 hPa Calm     85 % 0 mm 84.0 W/m2 FEW
07:45 -10.9 °C -12.4 °C 34784.4 hPa Calm     83 % 0 mm 93.0 W/m2 FEW
07:50 -10.7 °C -12.3 °C 34784.4 hPa Calm     83 % 0 mm 113.0 W/m2 CLR
07:55 -10.7 °C -12.3 °C 34784.4 hPa Calm     82 % 0 mm 125.0 W/m2 CLR
08:00 -10.4 °C -12.1 °C 34784.4 hPa Calm     82 % 0 mm 149.0 W/m2 CLR
08:05 -10.2 °C -12 °C 34784.4 hPa Calm     81 % 0 mm 178.0 W/m2 CLR
08:10 -10 °C -12 °C 34784.4 hPa Calm     79 % 0 mm 190.0 W/m2 CLR
08:15 -9.9 °C -12 °C 34784.4 hPa Calm     78 % 0 mm 188.0 W/m2 CLR
08:20 -9.7 °C -11.9 °C 34784.4 hPa Calm     77 % 0 mm 202.0 W/m2 CLR
08:26 -9.5 °C -11.8 °C 34784.4 hPa Calm     76 % 0 mm 209.0 W/m2 CLR
08:31 -9.3 °C -11.7 °C 34784.4 hPa Calm     75 % 0 mm 223.0 W/m2 CLR
08:36 -9 °C -11.6 °C 34784.4 hPa Calm     74 % 0 mm 239.0 W/m2 CLR
08:41 -8.7 °C -11.4 °C 34784.4 hPa Calm     73 % 0 mm 257.0 W/m2 CLR
08:46 -8.5 °C -11.4 °C 34784.4 hPa Calm     71 % 0 mm 272.0 W/m2 CLR
08:51 -8.3 °C -11.3 °C 34784.4 hPa Calm     70 % 0 mm 285.0 W/m2 CLR
08:56 -8 °C -11.2 °C 34784.4 hPa Calm     69 % 0 mm 339.0 W/m2 CLR
09:01 -7.7 °C -11.1 °C 34784.4 hPa Calm     68 % 0 mm 357.0 W/m2 CLR
09:06 -7.4 °C -11.1 °C 34784.4 hPa Calm     66 % 0 mm 336.0 W/m2 CLR
09:11 -7.2 °C -11.1 °C 34784.4 hPa Calm     64 % 0 mm 295.0 W/m2 CLR
09:16 -7 °C -11 °C 34784.4 hPa Calm     63 % 0 mm 345.0 W/m2 CLR
09:21 -6.9 °C -10.9 °C 34784.4 hPa Calm     63 % 0 mm 396.0 W/m2 CLR
09:26 -6.6 °C -10.9 °C 34784.4 hPa Calm     61 % 0 mm 413.0 W/m2 CLR
09:31 -6.5 °C -11.1 °C 34784.4 hPa Calm     59 % 0 mm 378.0 W/m2 CLR
09:36 -6.4 °C -10.9 °C 34784.4 hPa Calm     60 % 0 mm 450.0 W/m2 CLR
09:41 -6.3 °C -10.8 °C 34784.4 hPa Calm     60 % 0 mm 339.0 W/m2 CLR
09:46 -6.3 °C -11.1 °C 34784.4 hPa Calm     58 % 0 mm 107.0 W/m2 CLR
09:51 -6.2 °C -11.1 °C 34784.4 hPa Calm     57 % 0 mm 483.0 W/m2 CLR
09:56 -6.1 °C -11 °C 34784.4 hPa Calm     57 % 0 mm 504.0 W/m2 CLR
10:01 -5.9 °C -11 °C 34784.4 hPa Calm     56 % 0 mm 534.0 W/m2 CLR
10:06 -5.8 °C -11.1 °C 34784.4 hPa Calm     55 % 0 mm 533.0 W/m2 CLR
10:11 -5.7 °C -10.9 °C 34784.4 hPa Calm     55 % 0 mm 554.0 W/m2 CLR
10:16 -5.4 °C -10.9 °C 34784.4 hPa Calm     54 % 0 mm 552.0 W/m2 CLR
10:21 -5.4 °C -11.2 °C 34784.4 hPa ENE 9 km/h 9 km/h 52 % 0 mm 571.0 W/m2 CLR
10:26 -5.4 °C -11 °C 34784.4 hPa Calm     53 % 0 mm 599.0 W/m2 CLR
10:31 -5.3 °C -10.9 °C 34784.4 hPa ENE 7.7 km/h   53 % 0 mm 643.0 W/m2 CLR
10:36 -5.2 °C -10.9 °C 34784.4 hPa ENE 3.1 km/h 3.1 km/h 52 % 0 mm 652.0 W/m2 CLR
10:41 -5.1 °C -11 °C 34784.4 hPa Calm     51 % 0 mm 631.0 W/m2 CLR
10:46 -4.9 °C -11 °C 34784.4 hPa ENE 3.1 km/h   50 % 0 mm 686.0 W/m2 CLR
10:51 -4.7 °C -10.8 °C 34784.4 hPa NE 11.9 km/h 11.9 km/h 50 % 0 mm 650.0 W/m2 CLR
10:56 -4.7 °C -11 °C 34774.2 hPa ENE 9 km/h 9 km/h 49 % 0 mm 663.0 W/m2 CLR
11:01 -4.7 °C -10.9 °C 34774.2 hPa ENE 11.9 km/h   49 % 0 mm 693.0 W/m2 CLR
11:06 -4.6 °C -10.7 °C 34774.2 hPa ENE 5.1 km/h 5.1 km/h 50 % 0 mm 691.0 W/m2 CLR
11:11 -4.5 °C -11 °C 34774.2 hPa ENE 9 km/h   48 % 0 mm 733.0 W/m2 CLR
11:16 -4.5 °C -11.2 °C 34774.2 hPa NE 11.9 km/h 11.9 km/h 47 % 0 mm 738.0 W/m2 CLR
11:21 -4.4 °C -11.1 °C 34774.2 hPa Calm     47 % 0 mm 737.0 W/m2 CLR
11:26 -4.2 °C -10.9 °C 34774.2 hPa ENE 7.7 km/h 7.7 km/h 47 % 0 mm 765.0 W/m2 CLR
11:31 -4 °C -10.9 °C 34774.2 hPa Calm     46 % 0 mm 761.0 W/m2 CLR
11:36 -3.8 °C -11.1 °C 34774.2 hPa East 7.7 km/h 7.7 km/h 44 % 0 mm 728.0 W/m2 CLR
11:41 -3.8 °C -11.1 °C 34774.2 hPa East 10.3 km/h 10.3 km/h 44 % 0 mm 703.0 W/m2 CLR
11:46 -3.8 °C -10.9 °C 34774.2 hPa NE 9 km/h 9 km/h 45 % 0 mm 796.0 W/m2 CLR
11:51 -3.8 °C -10.9 °C 34774.2 hPa ENE 17.9 km/h 17.9 km/h 45 % 0 mm 803.0 W/m2 CLR
11:56 -3.8 °C -11.1 °C 34774.2 hPa North 15 km/h 15 km/h 44 % 0 mm 775.0 W/m2 CLR
12:01 -3.8 °C -10.9 °C 34760.7 hPa Calm     45 % 0 mm 838.0 W/m2 CLR
12:06 -3.6 °C -10.7 °C 34760.7 hPa ENE 15 km/h   45 % 0 mm 856.0 W/m2 CLR
12:11 -3.4 °C -10.7 °C 34760.7 hPa NNE 23.8 km/h 23.8 km/h 44 % 0 mm 881.0 W/m2 CLR
12:16 -3.4 °C -10.5 °C 34760.7 hPa ENE 18.2 km/h 18.2 km/h 45 % 0 mm 847.0 W/m2 CLR
12:21 -3.3 °C -10.8 °C 34760.7 hPa ENE 23.8 km/h 23.8 km/h 43 % 0 mm 844.0 W/m2 CLR
12:26 -3.3 °C -10.8 °C 34760.7 hPa ENE 26.9 km/h 26.9 km/h 43 % 0 mm 816.0 W/m2 CLR
12:31 -3.2 °C -10.7 °C 34760.7 hPa NNE 17.9 km/h 17.9 km/h 43 % 0 mm 861.0 W/m2 CLR
12:36 -3.1 °C -11.1 °C 34760.7 hPa NNE 11.9 km/h 11.9 km/h 41 % 0 mm 886.0 W/m2 CLR
12:41 -2.9 °C -10.9 °C 34760.7 hPa NE 17.9 km/h 17.9 km/h 41 % 0 mm 870.0 W/m2 CLR
12:46 -2.9 °C -11.3 °C 34760.7 hPa NE 10.3 km/h 10.3 km/h 39 % 0 mm 858.0 W/m2 CLR
12:51 -2.9 °C -11.1 °C 34750.5 hPa NE 15 km/h 15 km/h 40 % 0 mm 904.0 W/m2 CLR
12:56 -2.7 °C -11.3 °C 34750.5 hPa ENE 11.9 km/h   38 % 0 mm 907.0 W/m2 CLR
13:01 -2.5 °C -11.2 °C 34750.5 hPa NE 10.3 km/h 10.3 km/h 38 % 0 mm 918.0 W/m2 CLR
13:06 -2.3 °C -11.4 °C 34750.5 hPa ENE 9 km/h 9 km/h 36 % 0 mm 914.0 W/m2 CLR
13:07 -2.3 °C -11.4 °C 34750.5 hPa Calm     36 % 0 mm 918.0 W/m2 CLR
13:12 -2.3 °C -11.7 °C 34750.5 hPa ENE 20.9 km/h 20.9 km/h 35 % 0 mm 921.0 W/m2 CLR
13:18 -2.3 °C -11.6 °C 34750.5 hPa ENE 29.8 km/h 29.8 km/h 35 % 0 mm 923.0 W/m2 CLR
13:23 -2.4 °C -11.8 °C 34750.5 hPa NE 23.8 km/h 23.8 km/h 35 % 0 mm 925.0 W/m2 CLR
13:28 -2.4 °C -12 °C 34740.4 hPa North 23.8 km/h 23.8 km/h 34 % 0 mm 932.0 W/m2 CLR
13:33 -2.4 °C -11.6 °C 34740.4 hPa ENE 5.1 km/h 6.3 km/h 36 % 0 mm 939.0 W/m2 CLR
13:38 -2.4 °C -11.8 °C 34740.4 hPa NE 6 km/h 6 km/h 35 % 0 mm 965.0 W/m2 CLR
13:43 -2.4 °C -11.7 °C 34740.4 hPa WNW 7.7 km/h 7.7 km/h 35 % 0 mm 970.0 W/m2 CLR
13:48 -2.2 °C -12.3 °C 34740.4 hPa NNE 11.9 km/h 11.9 km/h 32 % 0 mm 988.0 W/m2 CLR
13:49 -2.2 °C -12.1 °C 34740.4 hPa NNE 15 km/h 15 km/h 33 % 0 mm 142.0 W/m2 CLR
13:54 -2.4 °C -12 °C 34740.4 hPa NW 15 km/h 15 km/h 34 % 0 mm 983.0 W/m2 CLR
13:59 -2.3 °C -12.4 °C 34740.4 hPa North 15 km/h 15 km/h 32 % 0 mm 155.0 W/m2 CLR
14:04 -2.6 °C -12.6 °C 34726.8 hPa NNE 15 km/h 15 km/h 32 % 0 mm 190.0 W/m2 CLR
14:09 -2.3 °C -13 °C 34726.8 hPa NNE 15 km/h 15 km/h 30 % 0 mm 1002.0 W/m2 CLR
14:14 -2.1 °C -13.1 °C 34726.8 hPa North 11.9 km/h 11.9 km/h 29 % 0 mm 976.0 W/m2 CLR
14:19 -2.1 °C -13 °C 34716.7 hPa WSW 17.9 km/h 17.9 km/h 29 % 0 mm 963.0 W/m2 CLR
14:24 -1.9 °C -12.9 °C 34716.7 hPa West 9 km/h 9 km/h 29 % 0 mm 969.0 W/m2 CLR
14:29 -1.7 °C -12.2 °C 34716.7 hPa East 29.8 km/h 29.8 km/h 31 % 0 mm 942.0 W/m2 CLR
14:34 -1.8 °C -12.3 °C 34716.7 hPa ENE 17.9 km/h 17.9 km/h 31 % 0 mm 926.0 W/m2 CLR
14:39 -1.8 °C -12 °C 34716.7 hPa NE 17.9 km/h 17.9 km/h 32 % 0 mm 919.0 W/m2 CLR
14:44 -1.8 °C -12 °C 34716.7 hPa ESE 15 km/h 15 km/h 32 % 0 mm 923.0 W/m2 CLR
14:49 -1.9 °C -12.3 °C 34716.7 hPa East 17.9 km/h 17.9 km/h 31 % 0 mm 916.0 W/m2 CLR
14:54 -1.9 °C -12.4 °C 34716.7 hPa East 25.9 km/h 25.9 km/h 31 % 0 mm 923.0 W/m2 CLR
14:59 -2 °C -12.4 °C 34703.1 hPa NNE 20.9 km/h 20.9 km/h 31 % 0 mm 930.0 W/m2 CLR
15:04 -1.8 °C -12.6 °C 34703.1 hPa SE 17.9 km/h 17.9 km/h 30 % 0 mm 930.0 W/m2 CLR
15:09 -1.7 °C -12.4 °C 34703.1 hPa NE 9 km/h 9 km/h 30 % 0 mm 942.0 W/m2 CLR
15:14 -1.3 °C -12.4 °C 34703.1 hPa North 26.9 km/h 26.9 km/h 29 % 0 mm 956.0 W/m2 CLR
15:19 -1.4 °C -12.5 °C 34703.1 hPa ENE 20.8 km/h 20.8 km/h 29 % 0 mm 921.0 W/m2 CLR
15:24 -1.7 °C -12.7 °C 34703.1 hPa ENE 23.8 km/h 23.8 km/h 29 % 0 mm 937.0 W/m2 CLR
15:29 -1.7 °C -12.7 °C 34703.1 hPa ESE 25.9 km/h 25.9 km/h 29 % 0 mm 905.0 W/m2 CLR
15:34 -1.8 °C -12.6 °C 34693 hPa East 11.9 km/h 11.9 km/h 30 % 0 mm 882.0 W/m2 CLR
15:39 -1.8 °C -12.6 °C 34693 hPa ESE 26.9 km/h 26.9 km/h 30 % 0 mm 846.0 W/m2 CLR
15:44 -1.7 °C -12.4 °C 34693 hPa ESE 31.1 km/h 31.1 km/h 30 % 0 mm 874.0 W/m2 CLR
15:49 -1.7 °C -12.4 °C 34682.8 hPa ENE 23.8 km/h 23.8 km/h 30 % 0 mm 830.0 W/m2 CLR
15:54 -1.8 °C -12.8 °C 34693 hPa ESE 9 km/h 9 km/h 29 % 0 mm 828.0 W/m2 CLR
15:59 -1.7 °C -12.7 °C 34682.8 hPa East 29.8 km/h 29.8 km/h 29 % 0 mm 810.0 W/m2 CLR
16:04 -1.8 °C -12.6 °C 34682.8 hPa Calm     30 % 0 mm 795.0 W/m2 CLR
16:09 -1.8 °C -12.8 °C 34682.8 hPa ESE 20.9 km/h 20.9 km/h 29 % 0 mm 786.0 W/m2 CLR
16:14 -1.8 °C -12.8 °C 34682.8 hPa East 9 km/h 9 km/h 29 % 0 mm 742.0 W/m2 CLR
16:19 -1.7 °C -12.7 °C 34682.8 hPa ENE 9 km/h 9 km/h 29 % 0 mm 664.0 W/m2 CLR
16:24 -1.5 °C -12.3 °C 34682.8 hPa NNE 3.1 km/h 3.1 km/h 30 % 0 mm 729.0 W/m2 CLR
16:29 -1.3 °C -12.4 °C 34682.8 hPa East 9 km/h 9 km/h 29 % 0 mm 742.0 W/m2 CLR
16:34 -1.3 °C -12.1 °C 34669.3 hPa SSE 17.9 km/h 17.9 km/h 30 % 0 mm 689.0 W/m2 CLR
16:39 -1.6 °C -12.3 °C 34669.3 hPa SE 12.9 km/h 12.9 km/h 30 % 0 mm 577.0 W/m2 CLR
16:44 -1.7 °C -12.2 °C 34669.3 hPa East 9 km/h 9 km/h 31 % 0 mm 529.0 W/m2 CLR
16:49 -1.7 °C -11.9 °C 34669.3 hPa ESE 20.8 km/h 20.8 km/h 32 % 0 mm 455.0 W/m2 CLR
16:54 -1.9 °C -12.1 °C 34669.3 hPa ESE 29.8 km/h 29.8 km/h 32 % 0 mm 462.0 W/m2 CLR
16:59 -2 °C -11.9 °C 34669.3 hPa East 26.9 km/h 26.9 km/h 33 % 0 mm 436.0 W/m2 CLR
17:04 -2.2 °C -11.8 °C 34669.3 hPa ESE 29.8 km/h 29.8 km/h 34 % 0 mm 439.0 W/m2 CLR
17:09 -2.3 °C -11.9 °C 34669.3 hPa ESE 41.7 km/h 41.7 km/h 34 % 0 mm 462.0 W/m2 CLR
17:14 -2.3 °C -11.9 °C 34669.3 hPa SE 35.7 km/h 35.7 km/h 34 % 0 mm 401.0 W/m2 CLR
17:19 -2.4 °C -11.7 °C 34669.3 hPa SSE 29.8 km/h 29.8 km/h 35 % 0 mm 338.0 W/m2 CLR
17:24 -2.4 °C -11.7 °C 34669.3 hPa East 23.8 km/h 23.8 km/h 35 % 0 mm 322.0 W/m2 CLR
17:29 -2.3 °C -11.7 °C 34669.3 hPa SSE 33.6 km/h 33.6 km/h 35 % 0 mm 313.0 W/m2 CLR
17:34 -2.4 °C -11.3 °C 34669.3 hPa SE 33.6 km/h 33.6 km/h 37 % 0 mm 302.0 W/m2 CLR
17:39 -2.7 °C -11.1 °C 34669.3 hPa SE 32.8 km/h 32.8 km/h 39 % 0 mm 302.0 W/m2 CLR
17:40 -2.7 °C -11.1 °C 34669.3 hPa ESE 32.8 km/h 32.8 km/h 39 % 0 mm 294.0 W/m2 CLR
17:45 -2.6 °C -11.1 °C 34669.3 hPa ESE 33.6 km/h 33.6 km/h 39 % 0 mm 290.0 W/m2 CLR
17:50 -2.7 °C -11.2 °C 34659.1 hPa SE 38.8 km/h 38.8 km/h 39 % 0 mm 283.0 W/m2 CLR
17:55 -2.7 °C -10.9 °C 34659.1 hPa SSE 38.8 km/h 38.8 km/h 40 % 0 mm 302.0 W/m2 CLR
18:00 -2.8 °C -11 °C 34669.3 hPa SE 32.8 km/h 32.8 km/h 40 % 0 mm 299.0 W/m2 CLR
18:05 -2.8 °C -10.8 °C 34669.3 hPa SE 32.8 km/h 32.8 km/h 41 % 0 mm 304.0 W/m2 CLR
18:10 -2.9 °C -11.1 °C 34659.1 hPa SE 38.8 km/h 38.8 km/h 40 % 0 mm 294.0 W/m2 CLR
18:15 -2.9 °C -10.9 °C 34659.1 hPa ESE 29.8 km/h 29.8 km/h 41 % 0 mm 380.0 W/m2 CLR
18:20 -2.8 °C -11 °C 34659.1 hPa ESE 29.8 km/h 29.8 km/h 40 % 0 mm 343.0 W/m2 CLR
18:25 -2.8 °C -10.8 °C 34659.1 hPa SE 26.9 km/h 26.9 km/h 41 % 0 mm 341.0 W/m2 CLR
18:30 -2.9 °C -11.1 °C 34659.1 hPa SSE 33.6 km/h 33.6 km/h 40 % 0 mm 299.0 W/m2 CLR
18:35 -3 °C -11.2 °C 34659.1 hPa SE 38.8 km/h 38.8 km/h 40 % 0 mm 320.0 W/m2 CLR
18:40 -3 °C -11.2 °C 34659.1 hPa South 29.8 km/h 29.8 km/h 40 % 0 mm 309.0 W/m2 CLR
18:45 -3 °C -10.9 °C 34659.1 hPa SSE 29.8 km/h 29.8 km/h 41 % 0 mm 283.0 W/m2 CLR
18:50 -3 °C -10.9 °C 34659.1 hPa SSE 23.8 km/h 23.8 km/h 41 % 0 mm 258.0 W/m2 CLR
18:55 -3 °C -11.2 °C 34659.1 hPa SSE 32.8 km/h 32.8 km/h 40 % 0 mm 234.0 W/m2 CLR
19:00 -3 °C -11.2 °C 34659.1 hPa SSE 35.7 km/h 35.7 km/h 40 % 0 mm 213.0 W/m2 CLR
19:05 -3.1 °C -11.2 °C 34659.1 hPa SE 29.8 km/h 29.8 km/h 40 % 0 mm 206.0 W/m2 CLR
19:10 -3.1 °C -11 °C 34659.1 hPa SE 29.8 km/h 29.8 km/h 41 % 0 mm 206.0 W/m2 CLR
19:15 -3 °C -11 °C 34659.1 hPa SE 20.9 km/h 20.9 km/h 41 % 0 mm 251.0 W/m2 CLR
19:20 -2.9 °C -10.9 °C 34659.1 hPa South 23.8 km/h 23.8 km/h 41 % 0 mm 244.0 W/m2 CLR
19:25 -2.9 °C -10.9 °C 34659.1 hPa SSE 29.8 km/h 29.8 km/h 41 % 0 mm 190.0 W/m2 CLR
19:31 -3 °C -11 °C 34659.1 hPa SSE 29.8 km/h 29.8 km/h 41 % 0 mm 172.0 W/m2 CLR
19:35 -3.2 °C -11.1 °C 34659.1 hPa SSE 29.8 km/h 29.8 km/h 41 % 0 mm 151.0 W/m2 CLR
19:40 -3.2 °C -11.1 °C 34659.1 hPa SSW 35.7 km/h 35.7 km/h 41 % 0 mm 137.0 W/m2 CLR
19:45 -3.2 °C -11.2 °C 34659.1 hPa South 23.8 km/h 23.8 km/h 41 % 0 mm 125.0 W/m2 CLR
19:50 -3.3 °C -11.2 °C 34659.1 hPa South 29.8 km/h 29.8 km/h 41 % 0 mm 107.0 W/m2 CLR
19:56 -3.3 °C -11.3 °C 34659.1 hPa South 26.9 km/h 26.9 km/h 41 % 0 mm 91.0 W/m2 CLR
20:01 -3.4 °C -11.3 °C 34659.1 hPa South 23.8 km/h 23.8 km/h 41 % 0 mm 81.0 W/m2 CLR
20:06 -3.5 °C -11.4 °C 34659.1 hPa SSW 29.8 km/h 29.8 km/h 41 % 0 mm 67.0 W/m2 FEW
20:11 -3.6 °C -11.5 °C 34669.3 hPa South 35.7 km/h 35.7 km/h 41 % 0 mm 58.0 W/m2 SCT
20:16 -3.7 °C -11.6 °C 34669.3 hPa South 29.8 km/h 29.8 km/h 41 % 0 mm 54.0 W/m2 SCT
20:21 -3.7 °C -11.6 °C 34669.3 hPa South 23.8 km/h 23.8 km/h 41 % 0 mm 53.0 W/m2 SCT
20:26 -3.8 °C -11.4 °C 34669.3 hPa South 32.8 km/h 32.8 km/h 42 % 0 mm 54.0 W/m2 SCT
20:31 -3.8 °C -11.5 °C 34669.3 hPa South 26.9 km/h 26.9 km/h 42 % 0 mm 47.0 W/m2 SCT
20:36 -3.8 °C -11.6 °C 34669.3 hPa SSE 23.3 km/h 23.3 km/h 42 % 0 mm 40.0 W/m2 BKN
20:41 -3.9 °C -11.6 °C 34669.3 hPa South 20.8 km/h 20.8 km/h 42 % 0 mm 35.0 W/m2 BKN
20:46 -4 °C -11.6 °C 34682.8 hPa SSE 20.9 km/h 20.9 km/h 42 % 0 mm 28.0 W/m2 BKN
20:51 -4.1 °C -11.9 °C 34682.8 hPa South 17.9 km/h 17.9 km/h 41 % 0 mm 23.0 W/m2 BKN
20:56 -4.1 °C -12 °C 34682.8 hPa South 26.9 km/h 26.9 km/h 41 % 0 mm 18.0 W/m2 BKN
20:57 -4.1 °C -12 °C 34682.8 hPa SSE 17.9 km/h 17.9 km/h 41 % 0 mm 16.0 W/m2 BKN
21:02 -4.2 °C -12.1 °C 34682.8 hPa South 29.8 km/h 29.8 km/h 41 % 0 mm 12.0 W/m2 BKN
21:07 -4.3 °C -12.3 °C 34682.8 hPa South 29.8 km/h 29.8 km/h 40 % 0 mm 9.0 W/m2 BKN
21:12 -4.3 °C -12.3 °C 34682.8 hPa South 20.9 km/h 20.9 km/h 40 % 0 mm 0.0 W/m2 OVC
21:17 -4.3 °C -12.4 °C 34693 hPa SSE 23.8 km/h 23.8 km/h 40 % 0 mm 5.0 W/m2 OVC
21:22 -4.4 °C -12.4 °C 34693 hPa South 20.9 km/h 20.9 km/h 40 % 0 mm 0.0 W/m2 CLR
21:27 -4.5 °C -12.6 °C 34693 hPa SSE 15 km/h 15 km/h 40 % 0 mm 0.0 W/m2 CLR
21:32 -4.6 °C -12.4 °C 34693 hPa SSE 15 km/h 15 km/h 41 % 0 mm 0.0 W/m2 CLR
21:37 -4.6 °C -12.4 °C 34693 hPa South 10.3 km/h 10.3 km/h 41 % 0 mm 0.0 W/m2 CLR
21:42 -4.7 °C -12.4 °C 34693 hPa SSW 9 km/h 9 km/h 41 % 0 mm 0.0 W/m2 CLR
21:47 -4.8 °C -12.4 °C 34693 hPa SSE 10.3 km/h 10.3 km/h 42 % 0 mm 0.0 W/m2 CLR
21:52 -4.8 °C -12.6 °C 34693 hPa SSE 10.3 km/h 10.3 km/h 41 % 0 mm 0.0 W/m2 CLR
21:57 -4.9 °C -12.4 °C 34693 hPa South 15 km/h 15 km/h 42 % 0 mm 0.0 W/m2 CLR
21:58 -4.9 °C -12.4 °C 34693 hPa South 15 km/h 15 km/h 42 % 0 mm 0.0 W/m2 CLR
22:03 -4.9 °C -12.5 °C 34693 hPa South 11.9 km/h 11.9 km/h 42 % 0 mm 0.0 W/m2 CLR
22:08 -5 °C -12.6 °C 34693 hPa South 12.9 km/h 12.9 km/h 42 % 0 mm 0.0 W/m2 CLR
22:13 -5.1 °C -12.6 °C 34693 hPa South 11.9 km/h 11.9 km/h 42 % 0 mm 0.0 W/m2 CLR
22:18 -5.1 °C -12.6 °C 34703.1 hPa South 11.9 km/h 11.9 km/h 42 % 0 mm 0.0 W/m2 CLR
22:23 -5.1 °C -12.7 °C 34703.1 hPa South 9 km/h 9 km/h 42 % 0 mm 0.0 W/m2 CLR
22:28 -5.2 °C -12.7 °C 34703.1 hPa Calm     42 % 0 mm 0.0 W/m2 CLR
22:33 -5.3 °C -12.6 °C 34703.1 hPa Calm     43 % 0 mm 0.0 W/m2 CLR
22:38 -5.4 °C -12.6 °C 34703.1 hPa Calm     44 % 0 mm 0.0 W/m2 CLR
22:43 -5.6 °C -12.7 °C 34703.1 hPa Calm     44 % 0 mm 0.0 W/m2 CLR
22:48 -5.7 °C -12.6 °C 34716.7 hPa Calm     45 % 0 mm 0.0 W/m2 CLR
22:53 -5.7 °C -12.7 °C 34716.7 hPa Calm     45 % 0 mm 0.0 W/m2 CLR
22:58 -5.9 °C -12.6 °C 34703.1 hPa Calm     46 % 0 mm 0.0 W/m2 CLR
23:03 -5.9 °C -12.5 °C 34716.7 hPa Calm     47 % 0 mm 0.0 W/m2 CLR
23:08 -6.1 °C -12.6 °C 34716.7 hPa Calm     47 % 0 mm 0.0 W/m2 CLR
23:13 -6.1 °C -12.6 °C 34716.7 hPa Calm     47 % 0 mm 0.0 W/m2 CLR
23:18 -6.2 °C -12.7 °C 34716.7 hPa Calm     47 % 0 mm 0.0 W/m2 CLR
23:23 -6.2 °C -12.7 °C 34716.7 hPa Calm     47 % 0 mm 0.0 W/m2 CLR
23:28 -6.2 °C -12.7 °C 34716.7 hPa Calm     47 % 0 mm 0.0 W/m2 CLR
23:33 -6.2 °C -12.7 °C 34716.7 hPa Calm     47 % 0 mm 0.0 W/m2 CLR
23:38 -6.3 °C -12.8 °C 34716.7 hPa Calm     47 % 0 mm 0.0 W/m2 CLR
23:43 -6.3 °C -12.8 °C 34716.7 hPa Calm     47 % 0 mm 0.0 W/m2 CLR
23:49 -6.2 °C -12.9 °C 34716.7 hPa Calm     46 % 0 mm 0.0 W/m2 CLR
23:54 -6.2 °C -12.9 °C 34716.7 hPa Calm     46 % 0 mm 0.0 W/m2 CLR
23:59 -6.2 °C -12.7 °C 34716.7 hPa Calm     47 % 0 mm 0.0 W/m2 CLR
Lo Temps de Massalio
Compliments of Weather Underground - 1.25 mb